Retour au catalogue

BREEZE-M DEB

LostHEO
NORAD 36961·DEBRIS·🇷🇺 Russia

Lancé Feb 28, 2006 depuis Baikonur Cosmodrome

Loading…

Prochains Passages (prochaines 24 heures)

TLE

PériméSource: Space-Track

Époque: Sep 1, 2010, 15:06 UTC

1 36961U 06006CT  10244.62919888  .00029867  00000-0  93665-2 0  9992
2 36961  51.9083 343.6859 5129985 174.1414 195.3706  5.35515951 44471

Suivez BREEZE-M DEB en temps réel avec AllMySat

Download on the App Store